GW4244 Weather Reports


time (UTC)temp
F
wind
direction
speed
knots
gust
knots
rain 1hr
in
rain 24hr
in
rain mn
in
humidity
%
barometer
mb
20260505224346 53 63 3.5 5.2 0.00 0.01 0.01 77 1008.0
20260505223843 53 156 2.6 2.6 0.00 0.01 0.01 77 1007.6
20260505223340 53 80 0.9 1.7 0.00 0.01 0.01 76 1007.5
20260505222836 53 21 1.7 2.6 0.00 0.01 0.01 76 1007.6
20260505222332 53 18 5.2 7.8 0.00 0.01 0.01 76 1007.9
20260505221829 54 165 3.5 5.2 0.00 0.01 0.01 77 1007.7
20260505221326 54 77 1.7 2.6 0.00 0.01 0.01 77 1007.6
20260505220823 53 206 6.1 7.8 0.00 0.01 0.01 76 1007.6
20260505220320 54 43 5.2 7.8 0.00 0.01 0.01 77 1007.8
20260505215818 54 34 1.7 3.5 0.00 0.01 0.01 77 1007.8
20260505215316 54 180 1.7 2.6 0.00 0.01 0.01 77 1007.8
20260505214814 54 62 1.7 3.5 0.00 0.01 0.01 78 1007.7
20260505214311 54 105 7.0 9.6 0.00 0.01 0.01 77 1007.4
20260505213808 54 42 4.3 6.1 0.00 0.01 0.01 77 1007.4
20260505213306 54 76 8.7 13.9 0.00 0.01 0.01 77 1007.0
20260505212801 54 155 4.3 7.0 0.00 0.01 0.01 78 1007.2
20260505212259 54 33 2.6 7.8 0.00 0.01 0.01 78 1007.1
20260505211755 54 103 1.7 2.6 0.00 0.01 0.01 78 1007.1
20260505211253 54 154 4.3 7.0 0.00 0.01 0.01 78 1007.6
20260505210748 54 58 7.0 8.7 0.00 0.01 0.01 79 1007.6
20260505210246 54 107 1.7 2.6 0.00 0.01 0.01 81 1007.6
20260505205743 54 50 5.2 11.3 0.00 0.01 0.01 81 1007.2
20260505205241 54 56 5.2 7.0 0.00 0.01 0.01 81 1007.5
20260505204737 54 115 3.5 5.2 0.00 0.01 0.01 82 1007.1
20260505204235 54 38 4.3 7.8 0.00 0.01 0.01 82 1007.0
20260505203732 54 143 5.2 9.6 0.00 0.01 0.01 83 1007.0
20260505203229 54 129 3.5 5.2 0.00 0.01 0.01 83 1007.0
20260505202725 54 172 5.2 7.0 0.00 0.01 0.01 83 1007.1
20260505202221 55 64 3.5 5.2 0.00 0.01 0.01 84 1007.1
20260505201718 55 122 3.5 3.5 0.00 0.01 0.01 84 1006.7
20260505201216 55 80 2.6 5.2 0.00 0.01 0.01 85 1007.1
20260505200713 55 71 4.3 7.8 0.00 0.01 0.01 85 1006.9
20260505200210 55 29 1.7 2.6 0.00 0.01 0.01 85 1007.2
20260505195706 55 70 2.6 5.2 0.00 0.01 0.01 84 1007.0
20260505195203 55 25 5.2 7.0 0.00 0.01 0.01 83 1007.0
20260505194701 55 354 5.2 7.8 0.00 0.01 0.01 83 1006.9
20260505194157 55 126 3.5 7.0 0.00 0.01 0.01 83 1006.9
20260505193653 56 276 7.0 12.2 0.00 0.01 0.01 83 1007.1
20260505193150 56 147 5.2 7.8 0.00 0.01 0.01 84 1006.8
20260505192649 56 170 2.6 5.2 0.00 0.01 0.01 83 1006.8
20260505192146 56 61 4.3 7.0 0.00 0.01 0.01 84 1006.7
20260505191644 55 127 7.0 13.0 0.00 0.01 0.01 84 1006.6
20260505191142 56 180 2.6 5.2 0.00 0.01 0.01 84 1006.5
20260505190638 56 148 4.3 6.1 0.00 0.01 0.01 85 1006.6
20260505190138 56 40 4.3 7.0 0.00 0.01 0.01 85 1006.5
20260505185635 56 62 2.6 3.5 0.00 0.01 0.01 86 1006.3
20260505185131 56 99 2.6 3.5 0.00 0.01 0.01 86 1006.8
20260505184628 56 37 1.7 2.6 0.00 0.01 0.01 86 1006.8
20260505184125 56 171 2.6 2.6 0.00 0.01 0.01 86 1006.7
20260505183622 56 53 5.2 7.0 0.00 0.01 0.01 86 1006.6
20260505183120 56 10 5.2 7.0 0.00 0.01 0.01 87 1006.3
20260505182615 56 57 2.6 2.6 0.00 0.01 0.01 86 1006.5
20260505182112 56 136 1.7 1.7 0.00 0.01 0.01 87 1005.9
20260505181609 56 133 1.7 1.7 0.00 0.01 0.01 88 1006.2
20260505181107 56 175 1.7 2.6 0.00 0.01 0.01 88 1005.9
20260505180602 56 194 1.7 2.6 0.00 0.01 0.01 88 1005.9
20260505180100 56 45 2.6 5.2 0.00 0.01 0.01 88 1006.1
20260505175555 56 146 3.5 3.5 0.00 0.01 0.01 88 1006.0
20260505175052 56 30 2.6 3.5 0.00 0.01 0.01 88 1006.1
20260505174549 56 47 2.6 2.6 0.00 0.01 0.01 88 1006.3
20260505174045 56 115 3.5 5.2 0.00 0.01 0.01 88 1006.1
20260505173542 56 166 3.5 6.1 0.00 0.01 0.01 89 1005.7
20260505173039 56 157 4.3 7.0 0.00 0.01 0.01 89 1005.6
20260505172537 56 131 0.9 1.7 0.00 0.01 0.01 89 1005.7
20260505172033 56 26 4.3 6.1 0.00 0.01 0.01 89 1005.5
20260505171528 56 119 3.5 5.2 0.00 0.01 0.01 89 1005.3
20260505171025 56 189 7.8 9.6 0.00 0.01 0.01 89 1005.3
20260505170522 56 27 4.3 8.7 0.00 0.01 0.01 89 1005.2
20260505170018 56 190 1.7 1.7 0.00 0.01 0.01 89 1005.4
20260505165513 56 35 2.6 6.1 0.00 0.01 0.01 89 1005.4
20260505165009 57 75 3.5 5.2 0.00 0.01 0.01 89 1005.3
20260505164506 57 21 5.2 7.8 0.00 0.01 0.01 89 1005.1
20260505164004 57 50 3.5 6.1 0.00 0.01 0.01 89 1005.1
20260505163502 58 318 2.6 2.6 0.00 0.01 0.01 89 1005.1
20260505163002 58 168 1.7 3.5 0.00 0.01 0.01 89 1004.8
20260505162456 58 166 2.6 7.8 0.00 0.01 0.01 89 1004.7
20260505161953 58 52 5.2 8.7 0.00 0.01 0.01 89 1004.7
20260505161450 59 127 3.5 5.2 0.00 0.01 0.01 89 1004.9
20260505160947 59 161 2.6 3.5 0.00 0.01 0.01 89 1005.0
20260505160446 59 48 2.6 3.5 0.00 0.01 0.01 89 1004.7
20260505152917 60 359 3.5 6.1 0.00 0.01 0.01 90 1004.2
20260505152414 60 68 2.6 2.6 0.00 0.01 0.01 90 1004.3
20260505151913 61 16 1.7 2.6 0.00 0.01 0.01 90 1004.2
20260505151410 61 358 2.6 3.5 0.00 0.01 0.01 90 1004.1
20260505150907 63 47 4.3 7.8 0.00 0.01 0.01 89 1004.0
20260505150404 65 42 1.7 2.6 0.00 0.01 0.01 89 1003.9
20260505140328 66 157 3.5 5.2 0.00 0.01 0.01 88 1003.2
20260505130251 66 72 0.9 1.7 0.00 0.01 0.01 87 1003.7
20260505124742 66 82 0.0 0.0 0.00 0.01 0.01 87 1003.4
20260505124239 66 149 1.7 2.6 0.00 0.01 0.01 87 1003.7
20260505123734 65 48 0.9 1.7 0.00 0.01 0.01 87 1003.4
20260505123231 65 66 0.9 0.9 0.00 0.01 0.01 88 1003.0
20260505122728 65 124 0.0 0.9 0.00 0.01 0.01 87 1002.8
20260505122225 65 124 0.9 1.7 0.00 0.01 0.01 88 1002.8
20260505121722 64 129 0.0 0.0 0.00 0.01 0.01 88 1002.9
20260505121218 64 87 0.9 1.7 0.00 0.01 0.01 88 1002.9
20260505120715 64 113 0.0 0.9 0.00 0.01 0.01 88 1002.8
20260505120211 64 121 0.0 0.0 0.00 0.01 0.01 88 1003.0
20260505115704 64 118 0.0 0.9 0.00 0.01 0.01 88 1002.9
20260505115203 64 161 0.0 0.9 0.00 0.01 0.01 88 1002.9
20260505114700 64 121 0.0 0.0 0.00 0.01 0.01 88 1003.0
20260505114156 64 110 0.0 0.9 0.00 0.01 0.01 89 1003.0
20260505113652 64 104 0.9 0.9 0.00 0.01 0.01 88 1003.0
20260505113149 64 116 0.9 1.7 0.00 0.01 0.01 88 1002.9
20260505112645 64 113 2.6 3.5 0.00 0.01 0.01 88 1003.0
20260505112144 64 115 0.0 0.9 0.00 0.01 0.01 88 1003.0
20260505111643 64 143 0.0 0.0 0.00 0.01 0.01 89 1003.0
20260505111139 64 142 1.7 1.7 0.00 0.01 0.01 89 1003.1
20260505110635 64 112 0.9 0.9 0.00 0.01 0.01 89 1002.9
20260505110133 64 113 2.6 3.5 0.00 0.01 0.01 89 1003.0
20260505102108 63 150 2.6 2.6 0.00 0.01 0.01 91 1002.7
20260505101607 63 135 0.9 0.9 0.00 0.01 0.01 91 1002.7
20260505101102 63 125 0.0 0.0 0.00 0.01 0.01 92 1002.7
20260505100559 63 116 0.9 1.7 0.00 0.01 0.01 92 1002.7
20260505100056 64 152 1.7 2.6 0.00 0.01 0.01 92 1002.8
20260505095552 64 125 1.7 1.7 0.00 0.01 0.01 93 1002.9
20260505095049 64 123 0.9 0.9 0.00 0.01 0.01 93 1002.6
20260505094545 64 292 0.9 0.9 0.00 0.01 0.01 93 1002.5
20260505094042 64 123 1.7 1.7 0.00 0.01 0.01 93 1002.5
20260505093538 64 137 2.6 2.6 0.00 0.01 0.01 93 1002.7
20260505093036 64 128 0.0 0.9 0.00 0.01 0.01 93 1002.6
20260505092533 64 113 0.0 0.9 0.00 0.01 0.01 93 1002.6
20260505092031 64 108 3.5 6.1 0.00 0.01 0.01 93 1002.7
20260505091528 64 132 1.7 2.6 0.00 0.01 0.01 93 1002.5
20260505091026 64 111 0.9 1.7 0.00 0.01 0.01 93 1002.6
20260505090524 64 123 1.7 2.6 0.00 0.01 0.01 93 1002.6
20260505090021 64 120 0.0 0.0 0.00 0.01 0.01 94 1002.4
20260505085519 63 152 2.6 3.5 0.00 0.01 0.01 94 1002.6
20260505085017 63 132 1.7 1.7 0.00 0.01 0.01 94 1002.8
20260505084515 63 104 0.9 0.9 0.00 0.01 0.01 94 1002.6
20260505084013 63 108 0.9 0.9 0.00 0.01 0.01 94 1002.8
20260505083510 63 166 2.6 2.6 0.00 0.01 0.01 94 1002.6
20260505083006 63 105 0.9 1.7 0.00 0.01 0.01 94 1002.6
20260505082502 63 112 0.9 1.7 0.00 0.01 0.01 94 1002.6
20260505081959 63 129 2.6 3.5 0.00 0.01 0.01 94 1002.7
20260505081456 63 104 0.0 0.9 0.00 0.01 0.01 94 1002.8
20260505080952 63 138 0.9 1.7 0.00 0.01 0.01 94 1002.8
20260505080448 63 159 0.9 0.9 0.00 0.01 0.01 93 1002.8
20260505075944 63 129 1.7 2.6 0.00 0.01 0.01 93 1002.7
20260505075441 63 167 0.0 0.9 0.00 0.01 0.01 93 1002.9
20260505074938 63 104 0.9 0.9 0.00 0.01 0.01 93 1003.0
20260505074436 62 66 1.7 1.7 0.00 0.01 0.01 93 1002.9
20260505073932 62 112 2.6 3.5 0.00 0.01 0.01 93 1003.2
20260505073430 63 155 2.6 2.6 0.00 0.01 0.01 94 1003.4
20260505072927 62 114 0.9 1.7 0.00 0.01 0.01 94 1003.5
20260505072423 63 190 3.5 6.1 0.00 0.01 0.01 93 1003.5
20260505071920 63 44 1.7 7.0 0.00 0.01 0.01 93 1004.0
20260505071416 63 215 3.5 5.2 0.00 0.01 0.01 92 1004.0
20260505070914 64 169 1.7 1.7 0.00 0.01 0.01 91 1004.3
20260505070410 65 79 2.6 3.5 0.00 0.01 0.01 89 1004.1
20260505065906 66 161 1.7 2.6 0.00 0.01 0.01 87 1004.0
20260505065402 66 95 0.9 1.7 0.00 0.01 0.01 87 1003.9
20260505064859 65 167 1.7 3.5 0.05 0.01 0.01 88 1004.2
20260505064356 66 40 0.9 1.7 0.05 0.01 0.01 88 1004.1
20260505063855 65 66 0.9 1.7 0.00 0.00 0.00 88 1004.1
20260505063355 65 52 0.9 1.7 0.00 0.00 0.00 89 1003.9
20260505062852 65 124 0.9 0.9 0.00 0.00 0.00 89 1003.9
20260505062349 65 49 1.7 1.7 0.00 0.00 0.00 91 1004.3
20260505061846 64 82 1.7 2.6 0.00 0.00 0.00 92 1003.9
20260505061344 64 51 0.0 0.0 0.00 0.00 0.00 92 1003.6
20260505060841 64 99 0.9 0.9 0.00 0.00 0.00 92 1003.0
20260505060338 64 159 0.0 0.0 0.00 0.00 0.00 91 1002.9
20260505055834 64 173 0.0 0.9 0.00 0.00 0.00 92 1002.7
20260505055330 64 121 0.0 0.0 0.00 0.00 0.00 92 1002.5
20260505054828 64 121 0.0 0.0 0.00 0.00 0.00 92 1002.7
20260505054325 64 122 0.0 0.9 0.00 0.00 0.00 92 1002.7
20260505053823 64 162 0.0 0.9 0.00 0.00 0.00 91 1002.7
20260505053320 64 132 0.9 0.9 0.00 0.00 0.00 91 1002.8
20260505052817 64 174 0.9 1.7 0.00 0.00 0.00 92 1002.6
20260505052314 63 129 0.0 0.0 0.00 0.00 0.00 92 1002.5
20260505051811 63 184 0.0 0.0 0.00 0.00 0.00 93 1002.5
20260505051308 63 140 0.0 0.0 0.00 0.00 0.00 92 1002.5
20260505050806 63 209 0.9 0.9 0.00 0.00 0.00 93 1002.6
20260505050305 64 189 0.0 0.9 0.00 0.00 0.00 92 1002.9
20260505041734 71 153 1.7 2.6 0.00 0.00 0.00 65 1002.9
20260505041231 71 212 4.3 7.0 0.00 0.00 0.00 65 1003.2
20260505040728 71 116 1.7 6.1 0.00 0.00 0.00 65 1003.2
20260505040225 71 301 1.7 2.6 0.00 0.00 0.00 65 1002.6
20260505035723 71 339 1.7 3.5 0.00 0.00 0.00 65 1002.9
20260505035218 71 229 3.5 6.1 0.00 0.00 0.00 65 1002.9
20260505034715 71 97 1.7 2.6 0.00 0.00 0.00 65 1002.9
20260505034212 71 253 3.5 5.2 0.00 0.00 0.00 65 1003.1
20260505033708 71 96 0.9 0.9 0.00 0.00 0.00 65 1003.2
20260505033207 71 94 0.9 0.9 0.00 0.00 0.00 65 1003.6
20260505032705 71 197 1.7 2.6 0.00 0.00 0.00 66 1003.7
20260505032200 71 91 3.5 3.5 0.00 0.00 0.00 65 1004.0
20260505031658 71 180 2.6 3.5 0.00 0.00 0.00 65 1004.1
20260505031154 71 181 0.9 0.9 0.00 0.00 0.00 65 1004.1
20260505030651 71 229 3.5 3.5 0.00 0.00 0.00 65 1004.2
20260505030147 71 201 1.7 1.7 0.00 0.00 0.00 66 1004.2
20260505025643 71 214 2.6 2.6 0.00 0.00 0.00 65 1004.1
20260505025142 71 212 3.5 3.5 0.00 0.00 0.00 66 1004.0
20260505024639 71 219 3.5 5.2 0.00 0.00 0.00 66 1004.1
20260505024136 71 217 3.5 5.2 0.00 0.00 0.00 66 1004.0
20260505023633 71 223 0.9 1.7 0.00 0.00 0.00 66 1004.0
20260505023130 71 229 1.7 2.6 0.00 0.00 0.00 66 1004.1
20260505022628 71 129 0.0 0.0 0.00 0.00 0.00 67 1003.9
20260505022124 71 157 0.0 0.9 0.00 0.00 0.00 66 1003.8
20260505021621 71 98 2.6 3.5 0.00 0.00 0.00 66 1003.9
20260505021118 72 220 1.7 1.7 0.00 0.00 0.00 66 1003.9
20260505020613 72 209 1.7 2.6 0.00 0.00 0.00 66 1004.0
20260505020110 72 210 0.9 0.9 0.00 0.00 0.00 65 1004.0
20260505015607 72 228 1.7 1.7 0.00 0.00 0.00 65 1004.0
20260505015104 72 204 1.7 1.7 0.00 0.00 0.00 64 1003.7
20260505014600 72 237 4.3 5.2 0.00 0.00 0.00 64 1003.8
20260505014058 72 217 2.6 2.6 0.00 0.00 0.00 63 1003.6
20260505013555 72 229 2.6 3.5 0.00 0.00 0.00 64 1003.6
20260505013052 73 233 1.7 3.5 0.00 0.00 0.00 63 1003.8
20260505012550 73 222 3.5 6.1 0.00 0.00 0.00 62 1003.7
20260505012047 73 192 2.6 2.6 0.00 0.00 0.00 62 1003.7
20260505011542 73 284 0.9 0.9 0.00 0.00 0.00 63 1003.6
20260505011040 73 191 5.2 6.1 0.00 0.00 0.00 62 1003.6
20260505010535 73 229 3.5 5.2 0.00 0.00 0.00 62 1003.6
20260505010032 73 192 2.6 3.5 0.00 0.00 0.00 63 1003.4
20260505005528 74 218 3.5 3.5 0.00 0.00 0.00 63 1003.5
20260505005026 74 187 1.7 1.7 0.00 0.00 0.00 63 1003.5
20260505004523 74 223 1.7 1.7 0.00 0.00 0.00 63 1003.4
20260505004019 75 222 4.3 7.0 0.00 0.00 0.00 62 1003.4
20260505003517 75 191 4.3 5.2 0.00 0.00 0.00 62 1003.5
20260505003014 75 226 3.5 3.5 0.00 0.00 0.00 62 1003.4
20260505002509 75 214 5.2 7.8 0.00 0.00 0.00 61 1003.4
20260505002008 75 217 5.2 6.1 0.00 0.00 0.00 62 1003.4
20260505001505 75 221 3.5 5.2 0.00 0.00 0.00 62 1003.5
20260505001002 75 239 5.2 7.0 0.00 0.00 0.00 61 1003.4
20260505000500 75 161 3.5 5.2 0.00 0.00 0.00 62 1003.5
20260504235956 75 237 3.5 7.0 0.00 0.00 0.00 61 1003.4
20260504235453 75 227 3.5 5.2 0.00 0.00 0.00 61 1003.5
20260504234950 76 224 7.0 7.8 0.00 0.00 0.00 60 1003.4
20260504234447 76 226 7.8 8.7 0.00 0.00 0.00 59 1003.4
20260504233943 76 200 5.2 6.1 0.00 0.00 0.00 60 1003.4
20260504233439 76 213 4.3 6.1 0.00 0.00 0.00 59 1003.5
20260504232936 76 227 4.3 6.1 0.00 0.00 0.00 59 1003.5
20260504232433 76 231 5.2 6.1 0.00 0.00 0.00 59 1003.3
20260504231931 76 230 7.8 8.7 0.00 0.00 0.00 58 1003.3
20260504231427 76 221 5.2 7.0 0.00 0.00 0.00 60 1003.5
20260504230923 76 233 7.8 8.7 0.00 0.00 0.00 59 1003.5
20260504230420 77 230 6.1 7.0 0.00 0.00 0.00 58 1003.5
20260504225919 77 234 9.6 12.2 0.00 0.00 0.00 58 1003.6
20260504225415 77 224 4.3 6.1 0.00 0.00 0.00 58 1003.4
20260504224913 77 231 2.6 3.5 0.00 0.00 0.00 58 1003.3